Simultaneous Nadir Overpasses (SNOs) Predictions

Prediction of SNOs between LANDSAT-8 and NOAA-19 Satellite Orbit:

Table of predicted SNOs for the next 14.0 days since TLE Epoch: 10/15/2022
Index Date (LANDSAT-8) Time (LANDSAT-8) Lat,Lon (LANDSAT-8) SZA (LANDSAT-8 ) Date (NOAA-19) Time (NOAA-19) Lat,Lon (NOAA-19) SZA (NOAA-19 ) Distance(km) Time Diff (sec)
1 10/17/2022 03:00:10 80.89, 171.65 92.19 10/17/2022 02:59:12 80.87, 171.69 92.16 1.81 58
2 10/17/2022 03:49:38 -80.86, -21.07 87.86 10/17/2022 03:50:07 -80.87, -21.05 87.84 1.50 29
3 10/19/2022 09:23:23 80.87, 75.59 92.98 10/19/2022 09:23:02 80.88, 75.52 92.97 1.61 21
4 10/19/2022 10:12:50 -80.87,-116.78 87.02 10/19/2022 10:13:56 -80.87,-116.92 87.00 2.67 66
5 10/21/2022 15:46:35 80.86, -20.24 93.79 10/21/2022 15:46:51 80.88, -20.35 93.79 2.32 16
6 10/23/2022 21:20:20 -80.88, 76.54 85.39 10/23/2022 21:19:35 -80.88, 76.45 85.42 1.68 45
7 10/23/2022 22:09:46 80.88,-115.81 94.63 10/23/2022 22:10:39 80.87,-115.90 94.63 1.97 53
8 10/26/2022 03:43:32 -80.86, -19.47 84.64 10/26/2022 03:43:24 -80.88, -19.55 84.64 2.13 8
9 10/28/2022 09:17:15 80.89, 77.43 96.17 10/28/2022 09:16:18 80.88, 77.30 96.13 2.64 57



Historial Predications of SNOs between LANDSAT-8 and NOAA-19
